Weather History for Muncie, IN

Change the Weather History Date:

Sunday, December 1, 2013

  Actual Average Record
Temperature  
Mean Temperature 41 °F 36 °F  
Max Temperature 50 °F 43 °F 66 °F (1962)
Min Temperature 32 °F 28 °F 10 °F (1976)
Degree Days  
Heating Degree Days 24 29  
Month to date heating degree days 24 29  
Since 1 July heating degree days 1275 1164  
Cooling Degree Days 0 0  
Month to date cooling degree days 0 0  
Year to date cooling degree days 973 956  
Moisture  
Dew Point 29 °F    
Average Humidity 69    
Maximum Humidity 89    
Minimum Humidity 49    
Precipitation  
Precipitation 0.00 in 0.10 in 0.95 in (2006)
Month to date precipitation 0.00 0.10  
Year to date precipitation 34.42 37.34  
Sea Level Pressure  
Sea Level Pressure 30.05 in    
Wind  
Wind Speed 6 mph (WSW)    
Max Wind Speed 14 mph    
Max Gust Speed 17 mph    
Visibility 9 miles    
Events      
T = Trace of Precipitation, MM = Missing Value Source: NWS Daily Summary

Daily Weather History Graph

Daily Weather History Graph

Search for Another Location

Airport:

Trip Planner

Search our weather history database for the weather conditions in past years. The results will help you decide how hot, cold, wet, or windy it might be!

Date:

Astronomy

Dec. 01, 2013 Rise Set
Actual Time 7:45 AM EST 5:16 PM EST
Civil Twilight 7:14 AM EST 5:46 PM EST
Nautical Twilight 6:41 AM EST 6:20 PM EST
Astronomical Twilight 6:08 AM EST 6:52 PM EST
Moon 6:02 AM EST (12/1) 4:25 PM EST (12/1)
Length of Visible Light 10h 31m
Length of Day
9h 31m
Waning Crescent, 2% of the Moon is Illuminated
Dec 1
Waning Crescent
Dec 2
New
Dec 9
First Quarter
Dec 17
Full
Dec 25
Last Quarter

Hourly Weather History & Observations

Time (EST) Temp. Windchill Dew Point Humidity Pressure Visibility Wind Dir Wind Speed Gust Speed Precip Events Conditions
12:53 AM 41.0 °F 35.8 °F 25.0 °F 53% 30.12 in 10.0 mi SSW 8.1 mph - N/A   Overcast
1:53 AM 42.1 °F 37.1 °F 25.0 °F 51% 30.10 in 10.0 mi SW 8.1 mph - N/A   Overcast
2:53 AM 41.0 °F 35.2 °F 24.1 °F 51% 30.09 in 10.0 mi SW 9.2 mph - N/A   Partly Cloudy
3:53 AM 39.0 °F 34.0 °F 24.1 °F 55% 30.09 in 10.0 mi SW 6.9 mph - N/A   Clear
4:53 AM 37.9 °F 32.7 °F 24.1 °F 57% 30.08 in 10.0 mi SW 6.9 mph - N/A   Clear
5:53 AM 37.0 °F 31.0 °F 24.1 °F 59% 30.08 in 10.0 mi SW 8.1 mph - N/A   Clear
6:53 AM 37.0 °F 31.0 °F 25.0 °F 62% 30.09 in 10.0 mi SW 8.1 mph - N/A   Clear
7:53 AM 36.0 °F 30.3 °F 25.0 °F 64% 30.09 in 10.0 mi SW 6.9 mph - N/A   Clear
8:53 AM 37.9 °F 32.7 °F 26.1 °F 62% 30.09 in 10.0 mi SW 6.9 mph - N/A   Clear
9:53 AM 41.0 °F 34.7 °F 28.0 °F 60% 30.09 in 10.0 mi WSW 10.4 mph - N/A   Clear
10:53 AM 44.1 °F 39.5 °F 30.9 °F 60% 30.09 in 10.0 mi West 8.1 mph - N/A   Clear
11:53 AM 46.9 °F - 32.0 °F 56% 30.06 in 10.0 mi WSW 9.2 mph - N/A   Clear
12:53 PM 48.0 °F - 33.1 °F 56% 30.04 in 10.0 mi West 5.8 mph - N/A   Clear
1:53 PM 48.0 °F - 34.0 °F 58% 30.01 in 10.0 mi WNW 9.2 mph - N/A   Clear
2:53 PM 48.9 °F - 34.0 °F 56% 30.00 in 10.0 mi WNW 10.4 mph - N/A   Clear
3:53 PM 48.0 °F - 35.1 °F 61% 29.99 in 10.0 mi NW 9.2 mph - N/A   Clear
4:53 PM 45.0 °F 41.2 °F 33.1 °F 63% 29.99 in 10.0 mi WNW 6.9 mph - N/A   Clear
5:53 PM 39.9 °F 36.7 °F 30.9 °F 70% 30.00 in 10.0 mi NW 4.6 mph - N/A   Clear
6:53 PM 36.0 °F 33.3 °F 30.0 °F 79% 30.01 in 9.0 mi NNW 3.5 mph - N/A   Clear
7:53 PM 36.0 °F - 30.0 °F 79% 30.01 in 9.0 mi Calm Calm - N/A   Clear
8:53 PM 34.0 °F - 30.0 °F 85% 30.01 in 8.0 mi Calm Calm - N/A   Clear
9:53 PM 34.0 °F - 30.0 °F 85% 30.00 in 7.0 mi Calm Calm - N/A   Clear
10:53 PM 36.0 °F 33.3 °F 30.0 °F 79% 29.99 in 6.0 mi NE 3.5 mph - N/A   Haze
11:53 PM 34.0 °F 31.0 °F 30.0 °F 85% 29.97 in 5.0 mi NNE 3.5 mph - N/A   Clear